Location: Atherton
(17.2661°S, 145.4859°E)
Time: 23:19:35
(UTC+10:00)

Vanguard 1 - Pass Details

Date: 02 July 2025
Orbit: 649 x 3822 km, 34.2° (Epoch: 17 July)

Event Time Altitude Azimuth Distance (km) Brightness Sun altitude
Rises 01:31:59 0° 245° (WSW) 3,963 - -72.6°
Reaches altitude 10° 01:35:18 10° 250° (WSW) 2,648 - -71.9°
Maximum altitude 01:40:46 44° 322° (NW) 986 - -70.7°
Drops below altitude 10° 01:44:59 10° 35° (NE) 2,042 - -69.7°
Sets 01:47:14 0° 42° (NE) 2,952 - -69.2°
